Volver al catálogo

STARLINK-5954

ActivoComunicacionesSSO
NORAD 56318·PAYLOAD·🇺🇸 United States

Lanzado Apr 27, 2023 desde Vandenberg Space Force Base

Loading…

Próximos Pases (próximas 24 horas)

TLE

ActualizadoSource: CelesTrak SupGP

Época: Sep 14, 2026, 22:26 UTC

1 56318C 23058B   26257.93520833  .00057267  00000+0  17779-2 0  2572
2 56318  97.2843 254.7557 0001662  85.5464 190.0727 15.33406289    18

Sigue STARLINK-5954 en tiempo real con AllMySat

Download on the App Store